{"data":{"norad_id":57851,"intl_designator":"2023-141M","name":"STARLINK-30405","alt_names":[],"object_type":"PAYLOAD","status":"ACTIVE","operator":null,"country":"US","launch_date":"2023-09-12","launch_site_code":"AFWTR","launch_vehicle":null,"mission":null,"orbit_class":"UNKNOWN","rcs_meters":null,"size_class":null,"mass_kg":null,"dimensions":null,"purposes":["comms"],"wikipedia_slug":null,"has_3d_model":false,"image_url":null,"decayed_at":null,"tle_current":{"epoch":"2026-05-25T03:07:08.817888Z","epoch_age_seconds":57816,"freshness":"FRESH","line1":"1 57851U 23141M   26145.12996317  .00000375  00000+0  23842-4 0  9990","line2":"2 57851  53.1612 288.8525 0001023  88.6206 271.4912 15.31705050152034","mean_motion":15.3170505,"eccentricity":0.0001023,"inclination_deg":53.1612,"raan_deg":288.8525,"arg_perigee_deg":88.6206,"mean_anomaly_deg":271.4912,"bstar":2.3842e-5,"rev_number":15203,"period_min":94.012878001545,"perigee_km":470.02430290317,"apogee_km":471.4255800564,"semimajor_km":6848.8619414798,"source":"CELESTRAK","updated_at":"2026-05-25T13:38:18.415290Z"}}}